STARLINK-4065, 52841

Orbit data source: Space-Track

STARLINK-4065, 52841 is a payload satellite owned by SpaceX/Seattle (US) in LEO that was launched on Fri, 17 Jun 2022 UTC via an FALCON 9 launch vehicle from the Air Force Eastern Test Range (AFETR). Payload-class satellites include a variety of spacecraft equipped with specific instruments for various scientific and technological missions. These include communications satellites like Starlink; space stations such as the ISS; scientific satellites like the Hubble; Earth observation satellites from companies like Planet Labs, Umbra, and HawkEye 360; GPS; miniature CubeSats for education and research; and military/defense satellites.

Loading next visibility...
Identifier
52841, 2022-062M
Orbit
LEO
Country
Flag of USUS
Related business
Manufacturer
SpaceX/Seattle
Mission
Operational Commercial Communications
Bus & Motor
STARLINK, Unknown motor
Mass
297 kg wet, ~275 kg dry
Launch date (UTC)
2022-06-17 (4 years ago)
Launch vehicle
FALCON 9
Launch site
Air Force Eastern Test Range (AFETR)
Object type
Payload
Rocket body
Debris
Shape & HBR
Box + 1 Pan, 10.1 m
Radar Cross Section
13.562 m², Large (>1 m²)

Expand to show TLE details & history
Last TLE update: 18 hours ago

TLE from 18 hours ago
0 STARLINK-4065
1 52841U 22062M   25349.86809866  .00000184  00000-0  29655-4 0  9990
2 52841  53.2179  50.4099 0001180  86.9890 273.1237 15.08844330193134
Epoch: 2025-12-15T20:50Z
TLE epoch observation values (Epoch: 2025-12-15T20:50:03.724Z)
Latitude
-0.00002°
Longitude
13.13387°
Altitude
540.583 km
Speed
7.593 km/s
True Right ascension
03h 21m 38s
True Declination
0° 00' 00"
Sunlit
Object was in full shadow at epoch
Visualization orbit readout
Latitude
Unknown
Longitude
Unknown
Altitude
Unknown
Speed
Unknown
Apparent Right ascension
Unknown
Apparent Declination
Unknown
Sunlit
N/A
Visualization observer readout
Local Sidereal Time
13:40:23
Azimuth
Unknown
Elevation
Unknown
Doppler factor
Unknown
Orbital elements
Apogee altitude
540.791 km
Perigee altitude
539.159 km
Semi-major axis
6,918.112 km
Eccentricity
0.00012
Inclination
53.2179°
RAAN
50.4099°
Arg. of periapsis
86.989°
True anomaly
273.1102°
Mean anomaly
273.1237°
Eccentric anomaly
273.11695°
Mean motion
3.77191 °/min
Orbital period
95.44 mins
BSTAR
0.000029655
Loading maneuver chart data...
Computing Atmospheric mass density...
Loading historical data...
Loading historical data...
Loading historical data...
Loading historical data...
Loading historical data...
Loading historical data...
Loading historical data...

Documentation

Showing up to 5 results
|